Weather History for KMQY - March, 2013

Change the Weather History Date:

Tuesday, March 12, 2013

  Actual Average Record
Temperature  
Mean Temperature 46 °F -  
Max Temperature 55 °F 55 °F 82 °F (2006)
Min Temperature 37 °F 39 °F 15 °F (1998)
Degree Days  
Heating Degree Days 20    
Moisture  
Dew Point 29 °F    
Average Humidity 57    
Maximum Humidity 75    
Minimum Humidity 34    
Precipitation  
Precipitation 0.00 in - - ()
Sea Level Pressure  
Sea Level Pressure 30.13 in    
Wind  
Wind Speed 8 mph (NW)    
Max Wind Speed 14 mph    
Max Gust Speed -    
Visibility 10 miles    
Events      
Averages and records for this station are not official NWS values.
T = Trace of Precipitation, MM = Missing Value Source: NWS Daily Summary

Daily Weather History Graph

Daily Weather History Graph

Search for Another Location

Airport or City:

Trip Planner

Search our weather history database for the weather conditions in past years. The results will help you decide how hot, cold, wet, or windy it might be!

Date:

Astronomy

Mar. 12, 2013 Rise Set
Actual Time 7:00 AM CDT 6:51 PM CDT
Civil Twilight 6:35 AM CDT 7:16 PM CDT
Nautical Twilight 6:05 AM CDT 7:46 PM CDT
Astronomical Twilight 5:35 AM CDT 8:16 PM CDT
Moon 7:09 AM CDT (3/12) 8:01 PM CDT (3/12)
Length of Visible Light 12h 41m
Length of Day
11h 50m
New Moon, 1% of the Moon is Illuminated
Mar 12
New Moon
Mar 19
First Quarter
Mar 27
Full
Apr 2
Last Quarter
Apr 10
New

Hourly Weather History & Observations

Time (CDT) Temp. Windchill Dew Point Humidity Pressure Visibility Wind Dir Wind Speed Gust Speed Precip Events Conditions
1:56 AM 38.8 °F 33.2 °F 31.1 °F 74% 30.06 in 10.0 mi NW 8.1 mph - N/A   Overcast
2:56 AM 38.8 °F 31.6 °F 30.0 °F 71% 30.06 in 10.0 mi NNW 11.5 mph - N/A   Overcast
3:56 AM 38.8 °F 32.6 °F 30.0 °F 71% 30.05 in 10.0 mi NNW 9.2 mph - N/A   Overcast
4:56 AM 38.8 °F 32.6 °F 30.0 °F 71% 30.08 in 10.0 mi NNW 9.2 mph - N/A   Overcast
5:56 AM 38.8 °F 34.6 °F 30.0 °F 71% 30.08 in 10.0 mi North 5.8 mph - N/A   Overcast
7:12 AM 37.4 °F 32.1 °F 30.2 °F 75% 30.08 in 10.0 mi NNW 6.9 mph - N/A   Mostly Cloudy
7:49 AM 37.4 °F 30.8 °F 30.2 °F 75% 30.09 in 10.0 mi NW 9.2 mph - N/A   Mostly Cloudy
7:56 AM 37.9 °F 31.5 °F 30.0 °F 73% 30.13 in 10.0 mi North 9.2 mph - N/A   Partly Cloudy
8:56 AM 39.9 °F 32.9 °F 27.1 °F 60% 30.14 in 10.0 mi North 11.5 mph - N/A   Clear
9:56 AM 41.9 °F 34.6 °F 29.1 °F 61% 30.17 in 10.0 mi North 13.8 mph - N/A   Clear
10:56 AM 43.9 °F 41.3 °F 30.0 °F 58% 30.17 in 10.0 mi Variable 4.6 mph - N/A   Clear
11:56 AM 45.0 °F 43.5 °F 28.0 °F 52% 30.18 in 10.0 mi Variable 3.5 mph - N/A   Clear
12:56 PM 48.9 °F - 30.0 °F 48% 30.17 in 10.0 mi West 5.8 mph - N/A   Clear
1:56 PM 50.9 °F - 32.0 °F 48% 30.15 in 10.0 mi West 6.9 mph - N/A   Clear
2:56 PM 52.9 °F - 31.1 °F 43% 30.14 in 10.0 mi NW 9.2 mph - N/A   Clear
3:56 PM 54.9 °F - 31.1 °F 40% 30.13 in 10.0 mi Calm Calm - N/A   Clear
4:56 PM 54.9 °F - 30.0 °F 39% 30.12 in 10.0 mi West 11.5 mph - N/A   Clear
5:56 PM 54.0 °F - 26.1 °F 34% 30.12 in 10.0 mi West 6.9 mph - N/A   Clear
6:56 PM 50.0 °F - 26.1 °F 39% 30.14 in 10.0 mi NW 10.4 mph - N/A   Scattered Clouds
7:56 PM 45.9 °F - 27.1 °F 48% 30.16 in 10.0 mi Calm Calm - N/A   Scattered Clouds
8:56 PM 43.9 °F 40.5 °F 26.1 °F 50% 30.18 in 10.0 mi WNW 5.8 mph - N/A   Clear
9:56 PM 41.9 °F 39.0 °F 27.1 °F 56% 30.19 in 10.0 mi WNW 4.6 mph - N/A   Clear
10:56 PM 41.0 °F 36.4 °F 27.1 °F 58% 30.20 in 10.0 mi West 6.9 mph - N/A   Clear
11:56 PM 41.0 °F 36.4 °F 27.1 °F 58% 30.20 in 10.0 mi West 6.9 mph - N/A   Clear